Location: Asar Burnu
(36.5203°N, 30.5523°E)
Time: 18:53:47
(UTC+00:00)

USA 186 - Pass Details

Date: 04 August 2024
Orbit: 372 x 418 km, 97.1° (Epoch: 18 September)

Event Time Altitude Azimuth Distance (km) Brightness Sun altitude
Exits shadow 17:40:43 - 166° (SSE) 1,955 4.7 -8.1°
Reaches altitude 10° 17:42:03 10° 166° (SSE) 1,369 4.0 -8.4°
Maximum altitude 17:44:58 84° 78° (ENE) 379 1.4 -8.9°
Drops below altitude 10° 17:47:54 10° 350° (N) 1,384 5.0 -9.4°
Sets 17:49:52 0° 350° (N) 2,243 6.1 -9.8°
